This is the latest recevied weather packets stored in our database for station/object N3WXO-1. If no packets are shown the sender has not sent any weather packets the latest 10 day(s).
| Time | Temp. | Humidity | Pressure | Rain* | Wind** | Luminosity | Snow |
|---|---|---|---|---|---|---|---|
| 1777996822 | 25.56° C | 53% | 1009.8 hPa | 0 mm | - | 821 W/m² | - |
| 1777996528 | 25° C | 53% | 1009.9 hPa | 0 mm | - | 768 W/m² | - |
| 1777996236 | 25° C | 54% | 1009.8 hPa | 0 mm | - | 810 W/m² | - |
| 1777995924 | 25° C | 50% | 1009.9 hPa | 0 mm | - | 803 W/m² | - |
| 1777995616 | 24.44° C | 50% | 1010 hPa | 0 mm | - | 789 W/m² | - |
| 1777995322 | 24.44° C | 52% | 1010 hPa | 0 mm | - | 795 W/m² | - |
| 1777995028 | 24.44° C | 53% | 1010 hPa | 0 mm | - | 779 W/m² | - |
| 1777994717 | 24.44° C | 53% | 1010.1 hPa | 0 mm | - | 772 W/m² | - |
| 1777994424 | 23.89° C | 54% | 1010.1 hPa | 0 mm | - | 768 W/m² | - |
| 1777994128 | 23.89° C | 56% | 1010.1 hPa | 0 mm | - | 756 W/m² | - |
| 1777993815 | 23.33° C | 57% | 1010.3 hPa | 0 mm | - | 751 W/m² | - |
| 1777993525 | 22.78° C | 60% | 1010.3 hPa | 0 mm | - | 742 W/m² | - |
| 1777993221 | 22.78° C | 63% | 1010.3 hPa | 0 mm | - | 735 W/m² | - |
| 1777992928 | 22.78° C | 61% | 1010.3 hPa | 0 mm | - | 728 W/m² | - |
| 1777992619 | 22.22° C | 60% | 1010.3 hPa | 0 mm | - | 715 W/m² | - |
| 1777992322 | 21.67° C | 63% | 1010.4 hPa | 0 mm | - | 710 W/m² | - |
| 1777992027 | 21.67° C | 63% | 1010.4 hPa | 0 mm | - | 700 W/m² | - |
| 1777991735 | 21.67° C | 65% | 1010.5 hPa | 0 mm | - | 686 W/m² | - |
| 1777991427 | 21.11° C | 68% | 1010.6 hPa | 0 mm | - | 677 W/m² | - |
| 1777991133 | 21.11° C | 67% | 1010.7 hPa | 0 mm | - | 668 W/m² | - |
| 1777990829 | 20.56° C | 70% | 1010.9 hPa | 0 mm | - | 650 W/m² | - |
| 1777990513 | 20.56° C | 67% | 1010.9 hPa | 0 mm | - | 642 W/m² | - |
| 1777989928 | 20° C | 75% | 1010.8 hPa | 0 mm | - | 619 W/m² | - |
| 1777989623 | 19.44° C | 76% | 1011 hPa | 0 mm | - | 610 W/m² | - |
| 1777989330 | 18.89° C | 77% | 1011 hPa | 0 mm | - | 594 W/m² | - |
* Rain latest hour (hover to see other rain measurements)
** Current wind speed in m/s (hover to see current wind gust speed)